Misión y Visión

La misión es proporcionar información fiable a la navegación aérea, contribuyendo a la seguridad, regularidad y eficiencia de la Navegación Aérea Internacional

La visión es contribuir sustancialmente al desarrollo de conocimientos y a la utilización de la meteorología aeronáutica a nivel nacional e internacional, mediante la innovación y la coparticipación con sectores sociales y productivos de la sociedad.

 
  Inicio
  Metar
  Taf
  Wintemp
  SIGMET
  Avisos
  Pronósticos
  Carpeta Meteorologica
  Imágenes Satelitales
  Climatología Aeronáutica
   
  ¿Quienes Somos?
  Contacto
  Eventos
  Publicaciones
  Politica de la Calidad
Taf


DIRECCIONES PARA INFORMES NACIONALES E INTERNACIONALES
(Metar /Speci - TAF)

http://adds.aviationweather.gov/tafs/index.php

http://www.ogimet.com/metars.phtml

PRONÓSTICOS DE AERÓDROMO

Cuando sea necesario, el encabezamiento abreviado puede incluir un cuarto grupo consistente en tres letras para identificar los boletines demorados (RRA), corregidos (CCA) o enmendados (AAA). Los boletines adicionales demorados, corregidos o enmendados deben identificarse con las letras RRB, RRC, etc.; CCB, CCC,etc.;AAB, AAC,etc.

 

DÍA 24/04/2014

 

TAF

MPTO

TAF MPTO 232200Z 2400/2424 23006KT 9999 SCT018
    BECMG 2404/2408 00000KT FEW018
    BECMG 2408/2412 03006KT 9000 SCT018=

TAF

MPPA(MPHO)

TAF MPPA 232200Z 2400/2424 36010KT 9999 SCT018
   BECMG 2404/2408 34006KT FEW018
   BECMG 2408/2412 36006KT 9999 SCT018=

 

TAF

MPMG

TAF MPMG 230400Z 2306/2318 00000KT 9999 FEW020 
BECMG 2314/2318 03010KT 9000 FEW020 SCT090 

TAF

MPDA

TAF MPDA 230400Z 2306/2318 00000KT 9999 FEW020 
     BECMG2314/2318 21010KT 9000 SCT018 SCT100
       

 

 

 
 











  Noticias AAC
  Directorio
  Contáctenos
  Historia
  Quejas y Sugerencias
  Etica y Transparencia

  Gestión SSP/SMS
  Seguridad Aérea
  Navegación Aérea
  Transporte Aéreo

  Tramites
  Áeronaves de Alquiler

  Meteorología
  I.S.F.P.A
  Notam
  Peligro Aviario
  AVSEC
  UPIA
  Permisos
 




DECLARACIÓN DE PRIVACIDAD